Preview of NWS' New Version of Forecast
This preview is not operational and should not be used for support decisions.

Regional Weather Roundup (RWR)

Issued by National Weather Service (NWS)

                            
000
ASPQ40 PGUM 181010
RWRPQ 
WEATHER ROUNDUP FOR THE MARIANAS AND MICRONESIA
NATIONAL WEATHER SERVICE TIYAN GU
800 PM CHST TUE JUN 18 2019

GUZ001>004-181100-
MARIANA ISLANDS-
  
CITY           SKY/WX    TMP DP  RH WIND       PRES   REMARKS
GUAM AIRPORT   CLEAR     82  73  74 E5        29.86R                  
ANDERSEN AFB   PTCLDY    81  73  78 E9        29.87R                  
ROTA AIRPORT   PTCLDY    81  70  69 E14       29.85R                  
TINIAN AP      PTCLDY    84  73  70 E7        29.84R HX  91           
SAIPAN AP      PTCLDY    82  75  78 E10       29.85R                  

$$

PMZ161-181100-
REPUBLIC OF PALAU-
  
CITY           SKY/WX    TMP DP  RH WIND       PRES   REMARKS
KOROR AP       CLOUDY    82  77  83 SW3       29.79R HX  91           
KOROR WSO      NOT AVBL                                               

$$

PMZ171>174-181100-
FEDERATED STATES OF MICRONESIA-
  
CITY           SKY/WX    TMP DP  RH WIND       PRES   REMARKS
YAP AIRPORT    MOCLDY    82  79  89 VRB5      29.79R HX  93           
CHUUK AP       CLOUDY    84  75  74 VRB5      29.79  HX  92           
POHNPEI AP     NOT AVBL                                               
POHNPEI WSO    CLOUDY    79  77  94 CALM      29.84S                  
KOSRAE AP      NOT AVBL                                               

$$

PMZ181-181100-
REPUBLIC OF THE MARSHALL ISLANDS-
  
CITY           SKY/WX    TMP DP  RH WIND       PRES   REMARKS
KWAJALEIN AP   PTCLDY    82  75  78 E16       29.85R                  
MAJURO AP      NOT AVBL                                               
MAJURO WSO     MOCLDY    82  77  83 E9        29.82R HX  91           

$$